Le nostre stazioni meteo in Italia

Pubblicità
Il mio iltempo24.it
Threave, Gran Bretagna (99090): Temperatura & dewpoint: 05.12.2018 01:00:00 - 11.12.2018 01:00:00 (GMT)Threave, Gran Bretagna (99090): Temperatura -20cm & Temperatura -100cm: 05.12.2018 01:00:00 - 11.12.2018 01:00:00 (GMT)Threave, Gran Bretagna (99090): precipitazioni: 05.12.2018 01:00:00 - 11.12.2018 01:00:00 (GMT)
Data & Tempo tt [°C] td [°C] tt -20cm [°C] tt -100cm [°C] rr [mm]
11.12.2018 01:00:00 4,3 4,0 - - 0,0
11.12.2018 00:00:00 4,1 3,8 - - 0,0
10.12.2018 23:00:00 3,8 3,4 - - 0,0
10.12.2018 22:00:00 4,0 3,5 - - 0,0
10.12.2018 21:00:00 4,3 3,9 - - 0,0
10.12.2018 20:00:00 4,3 3,9 - - 0,0
10.12.2018 19:00:00 4,3 3,9 - - 0,0
10.12.2018 18:00:00 4,2 3,8 - - 0,0
10.12.2018 17:00:00 4,2 3,8 - - 0,0
10.12.2018 16:00:00 4,2 3,6 - - 0,0
10.12.2018 15:00:00 4,9 4,3 - - 0,0
10.12.2018 14:00:00 5,0 4,5 - - 0,0
10.12.2018 13:00:00 4,1 3,9 - - 0,0
10.12.2018 12:00:00 2,7 2,6 - - 0,0
10.12.2018 11:00:00 1,7 1,6 - - 0,0
10.12.2018 10:00:00 0,9 0,7 - - 0,0
10.12.2018 09:00:00 0,4 0,3 6,2 8,0 0,0
10.12.2018 08:00:00 0,7 0,5 - - 0,0
10.12.2018 07:00:00 0,6 0,4 - - 0,0
10.12.2018 06:00:00 0,3 0,0 - - 0,0
10.12.2018 05:00:00 0,6 0,3 - - 0,0
10.12.2018 04:00:00 0,8 0,5 - - 0,0
10.12.2018 03:00:00 2,0 1,8 - - 0,0
10.12.2018 02:00:00 1,2 0,9 - - 0,0
10.12.2018 01:00:00 0,0 -0,5 - - 0,0
10.12.2018 00:00:00 0,7 0,1 - - 0,0
09.12.2018 23:00:00 1,9 1,2 - - 0,0
09.12.2018 22:00:00 2,3 1,5 - - 0,0
09.12.2018 21:00:00 2,3 1,0 - - 0,0
09.12.2018 20:00:00 2,7 0,9 - - 0,0
09.12.2018 19:00:00 3,3 1,4 - - 0,0
09.12.2018 18:00:00 4,6 1,1 - - 0,0
09.12.2018 17:00:00 5,6 2,0 - - 0,0
09.12.2018 16:00:00 5,1 1,5 - - 0,0
09.12.2018 15:00:00 6,1 2,2 - - 0,0
09.12.2018 14:00:00 7,2 2,5 - - 0,0
09.12.2018 13:00:00 7,0 2,0 - - 0,0
09.12.2018 12:00:00 7,8 3,3 - - 0,0
09.12.2018 11:00:00 5,5 4,3 - - 0,0
09.12.2018 10:00:00 3,0 2,2 - - 0,0
09.12.2018 09:00:00 3,7 2,9 6,7 8,0 0,0
09.12.2018 08:00:00 4,3 3,6 - - 0,0
09.12.2018 07:00:00 4,2 3,4 - - 0,0
09.12.2018 06:00:00 5,5 5,2 - - 0,2
09.12.2018 05:00:00 4,4 4,0 - - 0,0
09.12.2018 04:00:00 4,2 3,8 - - 0,0
09.12.2018 03:00:00 4,9 4,3 - - 0,0
09.12.2018 02:00:00 5,6 4,8 - - 0,0
09.12.2018 01:00:00 6,6 5,9 - - 0,2
09.12.2018 00:00:00 6,7 5,9 - - 0,2
08.12.2018 23:00:00 6,7 5,8 - - 0,0
08.12.2018 22:00:00 6,9 5,8 - - 0,2
08.12.2018 21:00:00 7,5 5,5 - - 0,0
08.12.2018 20:00:00 8,0 5,5 - - 0,0
08.12.2018 19:00:00 7,8 5,3 - - 0,0
08.12.2018 18:00:00 7,6 5,8 - - 0,0
08.12.2018 17:00:00 7,1 6,3 - - 0,4
08.12.2018 16:00:00 6,2 5,7 - - 0,0
08.12.2018 15:00:00 5,5 4,9 - - 0,8
08.12.2018 14:00:00 5,8 4,9 - - 0,4
08.12.2018 13:00:00 6,6 4,1 - - 0,6
08.12.2018 12:00:00 8,0 5,4 - - 0,0
08.12.2018 11:00:00 8,0 5,5 - - 0,0
08.12.2018 10:00:00 7,8 5,2 - - 0,0
08.12.2018 09:00:00 7,4 4,8 6,7 7,7 0,0
08.12.2018 08:00:00 7,2 4,0 - - 0,0
08.12.2018 07:00:00 7,5 5,6 - - 0,8
08.12.2018 06:00:00 7,7 6,3 - - 1,4
08.12.2018 05:00:00 7,9 6,3 - - 0,4
08.12.2018 04:00:00 8,0 6,3 - - 1,2
08.12.2018 03:00:00 7,8 6,2 - - 1,6
08.12.2018 02:00:00 8,3 5,6 - - 0,2
08.12.2018 01:00:00 8,2 6,6 - - 0,4
08.12.2018 00:00:00 8,5 6,3 - - 0,2
07.12.2018 23:00:00 7,7 5,8 - - 0,2
07.12.2018 22:00:00 7,8 5,2 - - 0,0
07.12.2018 21:00:00 7,4 4,5 - - 0,0
07.12.2018 20:00:00 7,5 3,8 - - 0,0
07.12.2018 19:00:00 7,3 3,5 - - 0,0
07.12.2018 18:00:00 6,8 3,1 - - 0,0
07.12.2018 17:00:00 6,4 2,9 - - 0,0
07.12.2018 16:00:00 6,4 2,1 - - 0,0
07.12.2018 15:00:00 6,1 2,1 - - 0,0
07.12.2018 14:00:00 6,4 2,2 - - 0,0
07.12.2018 13:00:00 6,3 1,7 - - 0,0
07.12.2018 12:00:00 6,8 2,0 - - 0,0
07.12.2018 11:00:00 6,4 2,6 - - 0,0
07.12.2018 10:00:00 6,6 2,5 - - 0,0
07.12.2018 09:00:00 6,7 2,7 6,7 8,2 0,0
07.12.2018 08:00:00 6,7 2,8 - - 0,2
07.12.2018 07:00:00 7,5 3,8 - - 0,0
07.12.2018 06:00:00 8,6 3,9 - - 0,0
07.12.2018 05:00:00 10,7 10,0 - - 0,8
07.12.2018 04:00:00 11,3 10,8 - - 3,0
07.12.2018 03:00:00 11,0 10,7 - - 2,6
07.12.2018 02:00:00 10,3 9,8 - - 2,8
07.12.2018 01:00:00 10,0 9,4 - - 2,4
07.12.2018 00:00:00 9,0 7,8 - - 0,6
06.12.2018 23:00:00 9,2 8,8 - - 0,0
06.12.2018 22:00:00 6,6 5,9 - - 0,0
06.12.2018 21:00:00 6,9 6,1 - - 0,0
06.12.2018 20:00:00 6,7 6,1 - - 0,0
06.12.2018 19:00:00 6,7 5,6 - - 0,0
06.12.2018 18:00:00 8,5 6,1 - - 0,0
06.12.2018 17:00:00 9,1 7,8 - - 0,0
06.12.2018 16:00:00 9,3 8,6 - - 0,0
06.12.2018 15:00:00 11,0 10,3 - - 0,0
06.12.2018 14:00:00 11,2 10,9 - - 0,2
06.12.2018 13:00:00 11,0 10,7 - - 0,6
06.12.2018 12:00:00 10,9 10,6 - - 1,4
06.12.2018 11:00:00 10,8 10,4 - - 1,2
06.12.2018 10:00:00 10,5 10,0 - - 1,0
06.12.2018 09:00:00 10,0 9,6 5,7 8,2 2,2
06.12.2018 08:00:00 10,2 10,0 - - 1,6
06.12.2018 07:00:00 9,4 9,3 - - 0,2
06.12.2018 06:00:00 8,7 8,6 - - 0,0
06.12.2018 05:00:00 5,7 5,6 - - 0,2
06.12.2018 04:00:00 5,5 5,3 - - 0,0
06.12.2018 03:00:00 5,0 4,9 - - 0,0
06.12.2018 02:00:00 5,0 4,8 - - 0,2
06.12.2018 01:00:00 4,8 4,6 - - 0,0
06.12.2018 00:00:00 4,6 4,5 - - 0,0
05.12.2018 23:00:00 4,5 4,3 - - 0,0
05.12.2018 22:00:00 4,4 4,2 - - 0,0
05.12.2018 21:00:00 4,3 4,1 - - 0,0
05.12.2018 20:00:00 4,3 4,1 - - 0,0
05.12.2018 19:00:00 4,5 4,4 - - 0,2
05.12.2018 18:00:00 4,4 4,2 - - 0,0
05.12.2018 17:00:00 4,2 4,0 - - 0,0
05.12.2018 16:00:00 4,2 4,0 - - 0,4
05.12.2018 15:00:00 4,0 3,8 - - 0,0
05.12.2018 14:00:00 3,9 3,7 - - 1,0
05.12.2018 13:00:00 3,6 3,4 - - 3,6
05.12.2018 12:00:00 3,4 3,2 - - 2,0
05.12.2018 11:00:00 3,3 3,1 - - 1,2
05.12.2018 10:00:00 3,0 2,8 - - 1,0
05.12.2018 09:00:00 2,5 2,4 5,9 8,7 1,2
05.12.2018 08:00:00 2,3 2,2 - - 1,0
05.12.2018 07:00:00 2,1 2,0 - - 0,0
05.12.2018 06:00:00 1,8 1,7 - - 0,0
05.12.2018 05:00:00 1,2 1,1 - - 0,0
05.12.2018 04:00:00 0,6 0,5 - - 0,0
05.12.2018 03:00:00 1,0 0,9 - - 0,2
05.12.2018 02:00:00 0,7 0,6 - - 0,0
05.12.2018 01:00:00 0,3 0,2 - - 0,0

tt = Temperatura
td = dewpoint
tt -20cm = Temperatura -20cm
tt -100cm = Temperatura -100cm
rr = precipitazioni

Stazioni seguenti

WeatherPro
AMSI
MeteoEarth